Location: Bocksberg
(48.5108°N, 10.6857°E)
Time: 03:16:07
(UTC+00:00)

Daily predictions for brighter satellites

Satellite Brightness Start Highest point End
(mag) Time Altitude Azimuth Time Altitude Azimuth Time Altitude Azimuth
CZ-4C R/B 4.2 00:06:34 25° NNW 00:06:39 25° NNW 00:12:04 10° NE
USA 234 4.1 00:01:44 10° ENE 00:07:48 44° N 00:07:48 44° N
Cosmos 2369 Rocket 4.2 00:10:57 23° N 00:10:57 23° N 00:13:36 10° NNE
ADEOS II 4.1 00:41:27 10° NE 00:44:27 23° ENE 00:44:27 23° ENE
Cosmos 2227 Rocket 4.1 00:52:13 10° NNW 00:54:07 22° NNW 00:54:07 22° NNW
SL-16 R/B 3.7 01:15:09 34° NNW 01:15:09 34° NNW 01:18:30 10° NNW
USA 267 4.2 01:07:54 10° ENE 01:13:06 37° ESE 01:13:06 37° ESE
SJ 16-02 4.4 01:17:44 10° NNE 01:19:58 14° NE 01:22:10 10° E
CZ-2D R/B 3.2 01:15:31 10° NNE 01:18:48 39° N 01:18:48 39° N
Lacrosse 5 3.4 01:29:27 31° E 01:29:27 31° E 01:32:24 10° ENE
Resurs 1-4 Rocket 3.2 01:22:40 10° N 01:25:56 38° N 01:25:56 38° N
ATLAS 5 CENTAUR R/B 3.5 01:30:41 27° N 01:30:41 27° N 01:33:21 10° NNE
NPP 4.5 01:26:29 10° NNE 01:30:13 46° N 01:30:13 46° N
Cosmos 1818 4.3 01:44:09 46° N 01:44:09 46° N 01:48:26 10° NNE
USA 234 3.4 01:43:53 10° ESE 01:50:22 71° NNE 01:55:07 20° NW
IRS-P3 4.5 01:45:52 10° NNE 01:51:04 60° E 01:51:04 60° E
Cosmos 1821 Rocket 3.9 01:53:05 10° N 01:59:26 88° E 02:00:05 73° SSE
CZ-4B R/B 3.8 01:54:33 10° NNE 01:58:43 60° N 01:58:43 60° N
Cosmos 1697 Rocket 2.6 02:01:35 81° E 02:01:35 81° E 02:07:04 10° NNE
Cosmos 972 Rocket 4.1 02:05:43 67° ENE 02:05:43 67° ENE 02:10:15 10° NNE
Cosmos 1980 Rocket 2.7 02:05:36 46° SE 02:06:32 51° ESE 02:12:00 10° NE
NOSS 2-2 (C) 4.3 02:06:13 53° NW 02:07:47 82° SW 02:15:30 10° SE
Cosmos 1934 Rocket 4.2 02:04:44 10° N 02:10:47 66° ENE 02:15:17 19° SSE
Cosmos 2263 Rocket 3.1 02:06:15 10° NNW 02:11:43 47° NE 02:17:10 10° SE
Meteor 1-26 Rocket 4.3 02:11:26 59° SE 02:12:14 67° E 02:17:37 10° NNE
Cosmos 1515 Rocket 4.1 02:12:56 57° E 02:12:56 57° E 02:17:08 10° NNE
Meteor 1-25 Rocket 4.1 02:09:08 10° NNW 02:14:52 75° W 02:14:52 75° W
SL-16 R/B 4.3 02:18:34 10° SSE 02:22:47 22° E 02:26:59 10° NE
Cosmos 1328 Rocket 4.2 02:24:02 49° NNW 02:24:02 49° NNW 02:27:26 10° N
Gbstr 26 Del rocket 4.4 02:18:37 30° WNW 02:23:13 85° NNE 02:30:47 10° ESE
CZ-3B R/B 2.3 02:25:23 61° N 02:25:23 61° N 02:32:06 10° ENE
Cosmos 1151 Rocket 3.9 02:26:32 40° NNW 02:26:32 40° NNW 02:29:34 10° N
ADEOS II 2.4 02:20:37 10° N 02:25:24 52° NW 02:25:24 52° NW
USA 305 3.1 02:27:21 67° ENE 02:27:21 67° ENE 02:31:04 10° ENE
Nadezhda 3 Rocket 3.9 02:26:57 60° SW 02:27:54 70° W 02:34:04 10° N
Cosmos 1933 Rocket 3.7 02:25:09 10° N 02:28:51 63° N 02:28:51 63° N
ARIANE 5 R/B 2.4 02:25:33 10° NNE 02:30:41 88° WNW 02:31:22 68° SSW
USA 306 3.0 02:31:23 73° NE 02:31:23 73° NE 02:35:16 10° ENE
Cosmos 1656 4.4 02:32:28 37° NW 02:32:36 37° NW 02:37:44 10° NNE
CZ-4C R/B 4.2 02:32:38 28° SE 02:34:06 44° ENE 02:37:31 10° N
IDEFIX/ARIANE 42P 2.6 02:29:50 10° NNE 02:35:09 79° ESE 02:36:51 44° S
IRS-1D 4.2 02:30:36 10° N 02:35:24 40° WNW 02:35:24 40° WNW
Cosmos 1605 Rocket 4.3 02:31:04 10° N 02:37:28 69° ENE 02:43:51 10° SSE
Cosmos 1535 Rocket 4.4 02:32:28 10° N 02:38:53 84° W 02:45:13 10° S
Meteor 1-14 Rocket 4.0 02:33:26 10° NNW 02:39:05 82° W 02:42:39 23° S
ASTEX 1 3.3 02:35:01 10° N 02:40:02 87° W 02:41:22 51° S
CZ-2C R/B 4.2 02:35:51 10° NNE 02:40:26 32° E 02:45:02 10° SSE
Cosmos 2228 Rocket 3.5 02:39:36 36° SSE 02:41:11 59° E 02:45:31 10° NNE
Meteor 1-5 Rocket 4.5 02:38:44 10° N 02:44:01 63° ENE 02:49:23 10° SSE
SL-4 R/B 4.4 02:45:52 15° SSE 02:47:39 18° SE 02:50:55 10° E
CZ-2D R/B 3.4 02:43:38 10° NNE 02:47:52 81° WNW 02:48:18 70° SW
Cosmos 1869 Rocket 4.0 02:44:36 10° N 02:48:55 59° ENE 02:53:11 10° SSE
IRS-1C 4.4 02:46:49 10° N 02:51:57 49° WNW 02:52:48 44° W
USA 267 3.2 02:50:46 10° NE 02:57:20 80° NNW 03:00:27 34° WSW
USA 307 3.0 02:57:59 54° WNW 02:58:41 65° NNW 03:02:56 10° ENE
Cosmos 1782 3.2 02:59:09 46° WNW 02:59:09 46° WNW 03:02:43 10° N
Cosmos 1238 Rocket 4.0 02:52:16 10° NNW 02:58:50 64° W 03:04:09 14° S
CZ-2C R/B 2.7 02:55:28 10° NNE 02:59:15 84° ESE 03:00:11 50° S
SJ 16-02 1.3 02:54:50 10° NNW 02:59:15 88° ENE 03:03:39 10° SSE
NOSS 3-3 (A) 4.1 02:56:41 29° SSW 02:59:44 68° SE 03:06:15 10° NE
NOSS 3-3 (C) 4.1 02:56:51 29° SSW 02:59:51 67° SE 03:06:19 10° NE
CZ-2D R/B 4.0 02:57:12 10° NNW 03:00:04 15° NW 03:00:07 15° NW
Cosmos 44 3.0 02:59:36 52° SW 03:00:43 86° NW 03:05:25 10° NE
Meteor 1-4 Rocket 3.6 02:59:37 20° SSE 03:01:40 42° E 03:05:01 10° NNE
USA 308 3.1 03:01:02 50° WNW 03:01:53 63° NNW 03:06:08 10° ENE
Cosmos 389 Rocket 3.0 03:02:26 46° NW 03:02:26 46° NW 03:05:24 10° N
PSLV R/B 4.5 02:58:29 10° NNE 03:02:34 45° E 03:06:34 10° S
Cosmos 2278 3.8 03:02:26 39° WSW 03:04:26 60° WNW 03:10:06 10° NNE
USA 276 2.3 03:04:24 64° NNW 03:04:27 65° N 03:07:40 10° E
PAYLOAD A 4.5 03:00:16 10° NNE 03:04:54 54° E 03:09:30 10° S
Resurs 1-4 Rocket 4.1 03:04:31 10° NNW 03:06:48 13° NW 03:07:00 13° NW
Cosmos 990 Rocket 4.1 03:02:15 10° NNW 03:07:28 78° ENE 03:12:41 10° SSE
H-2A R/B 2.0 03:04:56 10° S 03:09:18 78° WSW 03:13:48 10° NNW
ATLAS CENTAUR R/B 4.1 02:57:23 10° WNW 03:09:42 49° N 03:14:28 10° E
Lacrosse 5 2.3 03:08:39 34° W 03:10:32 53° NNW 03:15:31 10° NE
ERBS 2.9 03:11:03 41° S 03:11:43 48° SE 03:14:58 10° ENE
Cosmos 2369 4.4 03:11:29 30° W 03:13:21 38° NW 03:18:43 10° NNE
ATLAS 2AS CENTAUR R/B 3.5 03:05:51 10° NW 03:13:23 57° NE 03:20:19 10° ESE
Cosmos 1727 Rocket 4.3 03:08:14 10° S 03:14:32 70° E 03:20:50 10° NNE
ATLAS 5 CENTAUR R/B 3.9 03:12:12 11° NW 03:14:54 16° N 03:18:08 10° NNE
Cosmos 1339 Rocket 4.4 03:15:35 15° SSW 03:20:50 67° WNW 03:27:02 10° N
Meteor 1-11 Rocket 3.8 03:16:07 10° N 03:21:58 84° ENE 03:27:38 10° SSE
Landsat 5 3.6 03:17:31 10° S 03:21:59 57° W 03:26:24 10° NNW
GENESIS II 4.2 03:21:04 32° SSW 03:22:52 84° SE 03:26:56 10° NE
ADEOS Rocket 3.3 03:16:22 10° SSE 03:23:08 79° ENE 03:29:13 10° NNW
ALOS 4.2 03:19:39 10° NNE 03:23:47 30° E 03:27:53 10° SSE
CZ-4B R/B 2.6 03:21:09 10° SE 03:24:10 43° ENE 03:27:17 10° N
Cosmos 1459 Rocket 4.4 03:23:46 10° N 03:29:51 64° ENE 03:35:50 10° SSE
ERS-2 2.0 03:28:29 10° S 03:32:08 72° WSW 03:35:49 10° NNW
MSX 4.0 03:27:45 10° N 03:33:23 54° WNW 03:37:58 15° SW
USA 234 3.5 03:27:22 10° SSE 03:33:37 47° SW 03:39:53 10° WNW
Meteor 1-27 Rocket 4.1 03:29:33 10° S 03:35:28 75° E 03:41:23 10° NNE
Cosmos 1484 Rocket 4.4 03:32:48 10° NNE 03:36:32 37° E 03:40:16 10° SSE
Cosmos 2360 Rocket 3.6 03:35:19 10° S 03:40:31 39° ESE 03:45:44 10° NE
Cosmos 1536 2.8 03:37:54 10° N 03:42:01 88° W 03:46:05 10° S
Cosmos 1898 Rocket 3.5 03:37:14 10° NNW 03:42:25 62° WSW 03:47:37 10° S
X-37B 1.5 03:42:02 27° SW 03:42:53 32° SSW 03:45:47 10° SE
IRIDIUM 104 4.5 03:39:57 10° NNW 03:45:01 50° W 03:50:01 10° SSW
Cosmos 1697 Rocket 4.1 03:43:21 16° W 03:46:05 23° NW 03:50:29 10° N
BREEZE M DEB (TANK) 4.2 03:34:05 10° WNW 03:47:17 43° SW 03:51:33 10° SSE
CZ-4C R/B 4.0 03:41:19 10° NW 03:47:46 42° NE 03:55:16 10° ESE
Meteor 1-31 Rocket 4.2 03:44:25 10° NNE 03:48:02 39° E 03:51:39 10° SSE
FENGYUN 3A 4.5 03:43:21 10° NNE 03:48:39 54° E 03:53:55 10° S
deb Chang Zheng 4 3.9 03:45:59 10° NNE 03:50:18 66° ESE 03:54:32 10° S
Cosmos 1980 Rocket 3.1 03:47:24 18° W 03:50:46 33° NW 03:55:52 10° NNE
Cosmos 858 Rocket 4.4 03:48:01 10° NNW 03:53:12 69° WSW 03:58:20 10° S
Cosmos 921 Rocket 3.7 03:52:49 18° WSW 03:55:16 33° WNW 03:59:06 10° N
Cosmos 2263 Rocket 2.8 03:50:29 10° NW 03:55:29 33° WSW 04:00:28 10° SSW
Cosmos 2322 Rocket 2.2 03:51:28 10° SSW 03:57:09 88° ESE 04:02:54 10° NNE
Cosmos 1844 4.4 03:51:51 10° NNW 03:57:21 56° ENE 04:02:48 10° SE
USA 32 4.1 03:54:44 10° NNW 03:59:51 54° W 04:04:56 10° SSW
Cosmos 1844 Rocket 3.0 03:56:08 10° NNW 04:01:48 71° ENE 04:07:26 10° SE
Cosmos 2173 Rocket 4.0 03:56:15 10° NNW 04:02:35 76° W 04:08:55 10° S
Cosmos 1812 3.8 04:01:20 15° WSW 04:03:43 26° WNW 04:07:00 10° NNW
Cosmos 1707 Rocket 3.7 03:59:49 10° SSW 04:04:03 53° WNW 04:08:20 10° N
SL-16 R/B 2.2 04:00:41 10° SW 04:06:20 68° WNW 04:12:01 10° NNE
USA 305 3.8 04:03:31 12° WNW 04:07:09 41° N 04:11:12 10° ENE
Cosmos 1666 3.4 04:04:15 10° NNW 04:07:40 31° W 04:11:02 10° SSW
Cosmos 1937 Rocket 3.6 04:03:16 10° NNW 04:08:16 51° WSW 04:13:12 10° S
ARIANE 5 R/B 4.2 04:06:07 10° NNW 04:09:03 16° NW 04:11:42 11° W
ADEOS 3.6 04:04:54 10° NNE 04:10:09 83° WNW 04:15:22 10° SSW
USA 306 3.8 04:07:32 11° WNW 04:11:22 41° N 04:15:25 10° ENE
IDEFIX/ARIANE 42P 4.1 04:10:33 10° NNW 04:14:07 19° WNW 04:17:39 10° W
Cosmos 1814 Rocket 4.3 04:12:21 10° SSW 04:17:32 75° ESE 04:22:49 10° NNE
CZ-2C R/B 3.0 04:13:57 10° N 04:18:43 40° WNW 04:23:32 10° SW
Cosmos 841 Rocket 3.5 04:14:02 10° SSW 04:19:16 87° WNW 04:24:34 10° NNE
Cosmos 1733 Rocket 3.2 04:15:34 10° NNW 04:19:47 48° W 04:23:56 10° SSW
SAR-Lupe-4 3.9 04:17:42 10° S 04:21:07 42° W 04:24:35 10° NNW
Cosmos 2061 Rocket 4.1 04:15:18 10° N 04:21:46 81° W 04:28:11 10° S
SKYMED 2 3.7 04:19:25 10° SSE 04:23:45 84° ENE 04:28:08 10° NNW
Cosmos 44 Rocket 3.5 04:19:26 10° SSW 04:24:08 72° SE 04:29:00 10° NE
SL-4 R/B 2.7 04:22:08 10° SW 04:26:44 67° SSE 04:31:32 10° ENE
Cosmos 1763 Rocket 4.0 04:23:07 10° SW 04:28:11 43° WNW 04:33:14 10° NNE
Cosmos 2219 Rocket 4.0 04:25:57 10° S 04:31:04 36° ESE 04:36:14 10° NE
Cosmos 2016 Rocket 4.0 04:27:11 10° NNW 04:33:16 66° W 04:39:16 10° S
FALCON 9 DEB 3.2 04:30:52 10° WSW 04:34:17 79° SSE 04:37:45 10° ENE
